EW5212 Weather Reports


time (UTC)temp
F
wind
direction
speed
knots
gust
knots
rain 1hr
in
rain 24hr
in
rain mn
in
humidity
%
barometer
mb
20260509155016 72 293 2.6 6.1 0.00 0.00 0.00 55 1011.8
20260509154016 73 270 2.6 8.7 0.00 0.00 0.00 56 1012.1
20260509153015 73 293 2.6 7.8 0.00 0.00 0.00 56 1012.3
20260509152016 72 90 2.6 5.2 0.00 0.00 0.00 58 1012.4
20260509151016 72 248 1.7 7.0 0.00 0.00 0.00 60 1012.5
20260509150015 71 293 0.9 5.2 0.00 0.00 0.00 65 1012.5
20260509145015 68 293 1.7 4.3 0.00 0.00 0.00 67 1012.8
20260509144015 68 68 0.9 2.6 0.00 0.00 0.00 69 1012.9
20260509143035 68 293 0.9 5.2 0.00 0.00 0.00 70 1013.2
20260509142016 67 270 0.9 4.3 0.00 0.00 0.00 71 1013.3
20260509141015 66 270 0.9 5.2 0.00 0.00 0.00 71 1013.3
20260509140015 66 270 0.9 4.3 0.00 0.00 0.00 72 1013.3
20260509135035 65 270 0.9 4.3 0.00 0.00 0.00 73 1013.3
20260509134015 65 0 0.9 4.3 0.00 0.00 0.00 74 1013.4
20260509133035 64 270 0.9 3.5 0.00 0.00 0.00 75 1013.6
20260509132016 64 293 1.7 10.4 0.00 0.00 0.00 75 1013.7
20260509131016 64 270 0.9 3.5 0.00 0.00 0.00 76 1013.7
20260509130015 63 270 0.9 2.6 0.00 0.00 0.00 77 1013.6
20260509125015 61 270 0.9 3.5 0.00 0.00 0.00 79 1013.5
20260509124016 61 45 0.9 4.3 0.00 0.00 0.00 80 1013.6
20260509123015 60 45 0.9 2.6 0.00 0.00 0.00 81 1013.6
20260509122016 60 270 0.9 1.7 0.00 0.00 0.00 82 1013.6
20260509121015 59 270 0.9 7.0 0.00 0.00 0.00 82 1013.8
20260509120016 58 270 0.9 2.6 0.00 0.00 0.00 83 1013.7
20260509115016 58 293 0.9 3.5 0.00 0.00 0.00 83 1013.6
20260509114016 57 90 0.9 5.2 0.00 0.00 0.00 83 1013.6
20260509113016 57 0.0 4.3 0.00 0.00 0.00 84 1013.6
20260509112015 56 0.0 2.6 0.00 0.00 0.00 86 1013.4
20260509111016 55 0.0 2.6 0.00 0.00 0.00 86 1013.5
20260509110036 54 0.0 1.7 0.00 0.00 0.00 87 1013.5
20260509105015 54 0.0 0.9 0.00 0.00 0.00 87 1013.5
20260509104035 54 0.0 1.7 0.00 0.00 0.00 87 1013.4
20260509103015 54 0.0 0.9 0.00 0.00 0.00 87 1013.5
20260509102015 53 0.0 0.0 0.00 0.00 0.00 87 1013.4
20260509101015 53 0.0 1.7 0.00 0.00 0.00 88 1013.5
20260509100015 52 0.0 1.7 0.00 0.00 0.00 89 1013.4
20260509095015 51 0.0 0.0 0.00 0.00 0.00 91 1013.5
20260509094016 50 0.0 0.0 0.00 0.00 0.00 88 1013.6
20260509093015 51 0.0 0.0 0.00 0.00 0.00 87 1013.6
20260509092036 51 0.0 1.7 0.00 0.00 0.00 89 1013.7
20260509091015 51 0.0 0.0 0.00 0.00 0.00 87 1013.6
20260509090035 51 0.0 0.0 0.00 0.00 0.00 86 1013.6
20260509085015 52 0.0 0.0 0.00 0.00 0.00 85 1013.7
20260509084016 53 0.0 0.0 0.00 0.00 0.00 83 1013.6
20260509083015 54 0.0 0.0 0.00 0.00 0.00 81 1013.5
20260509082015 54 0.0 0.9 0.00 0.00 0.00 81 1013.4
20260509081035 53 0.0 0.9 0.00 0.00 0.00 83 1013.4
20260509080015 53 0.0 0.0 0.00 0.00 0.00 83 1013.2
20260509075015 53 0.0 0.0 0.00 0.00 0.00 82 1013.5
20260509074015 54 0.0 0.0 0.00 0.00 0.00 80 1013.6
20260509073017 55 0.0 0.0 0.00 0.00 0.00 78 1013.8
20260509072018 56 0.0 0.9 0.00 0.00 0.00 76 1013.9
20260509071018 56 0.0 0.0 0.00 0.00 0.00 75 1014.0
20260509070017 56 0.0 1.7 0.00 0.00 0.00 74 1014.0
20260509065017 56 0.0 2.6 0.00 0.00 0.00 74 1014.3
20260509064017 57 0.0 2.6 0.00 0.00 0.00 73 1014.4
20260509063037 57 90 0.9 3.5 0.00 0.00 0.00 72 1014.7
20260509062017 56 0.0 1.7 0.00 0.00 0.00 72 1014.7
20260509061057 56 0.0 3.5 0.00 0.00 0.00 72 1014.7
20260509060018 56 0.0 0.0 0.00 0.00 0.00 74 1014.9
20260509055018 55 0.0 1.7 0.00 0.00 0.00 74 1014.9
20260509054017 55 0.0 4.3 0.00 0.00 0.00 74 1014.9
20260509053017 53 0.0 1.7 0.00 0.00 0.00 77 1014.7
20260509052037 52 0.0 0.0 0.00 0.00 0.00 78 1014.6
20260509051017 53 0.0 0.0 0.00 0.00 0.00 78 1014.5
20260509050037 53 0.0 0.0 0.00 0.00 0.00 77 1014.5
20260509045017 54 0.0 0.0 0.00 0.00 0.00 75 1014.3
20260509044017 54 0.0 0.0 0.00 0.00 0.00 73 1014.4
20260509043057 55 0.0 0.0 0.00 0.00 0.00 73 1014.4
20260509042017 56 0.0 0.0 0.00 0.00 0.00 70 1014.5
20260509041017 57 0.0 0.0 0.00 0.00 0.00 68 1014.5
20260509040057 58 0.0 0.0 0.00 0.00 0.00 64 1014.5
20260509035017 60 0.0 0.9 0.00 0.00 0.00 61 1014.6
20260509034016 61 0.0 0.9 0.00 0.00 0.00 59 1014.8
20260509033017 61 0.0 1.7 0.00 0.00 0.00 57 1014.7
20260509032036 61 0.0 0.0 0.00 0.00 0.00 56 1015.0
20260509031017 61 0.0 1.7 0.00 0.00 0.00 55 1014.9
20260509030016 62 0.0 1.7 0.00 0.00 0.00 55 1014.8
20260509025016 62 0.0 1.7 0.00 0.00 0.00 53 1014.9
20260509024017 62 0.0 2.6 0.00 0.00 0.00 53 1014.9
20260509023016 62 0.0 1.7 0.00 0.00 0.00 52 1014.9
20260509022017 62 0.0 2.6 0.00 0.00 0.00 51 1014.8
20260509021016 62 0.0 1.7 0.00 0.00 0.00 51 1014.9
20260509020016 63 0.0 1.7 0.00 0.00 0.00 50 1014.7
20260509015016 63 0.0 0.9 0.00 0.00 0.00 49 1014.6
20260509014016 63 0.0 1.7 0.00 0.00 0.00 49 1014.6
20260509013036 64 0.0 1.7 0.00 0.00 0.00 48 1014.4
20260509012057 64 0.0 0.9 0.00 0.00 0.00 50 1014.4
20260509011016 64 0.0 1.7 0.00 0.00 0.00 47 1014.3
20260509010016 65 0.0 1.7 0.00 0.00 0.00 46 1014.2
20260509005016 65 0.0 2.6 0.00 0.00 0.00 46 1014.2
20260509004017 66 0.0 0.0 0.00 0.00 0.00 45 1014.3
20260509003016 66 0.0 2.6 0.00 0.00 0.00 44 1014.2
20260509002017 67 0.0 1.7 0.00 0.00 0.00 44 1014.1
20260509001016 67 0.0 2.6 0.00 0.00 0.00 44 1014.1
20260509000016 68 293 0.9 4.3 0.00 0.00 0.00 43 1014.0
20260508235016 69 0.0 1.7 0.00 0.00 0.00 43 1013.9
20260508234016 69 270 0.9 4.3 0.00 0.00 0.00 41 1013.7
20260508233016 70 293 0.9 5.2 0.00 0.00 0.00 40 1013.6
20260508232016 71 270 0.9 3.5 0.00 0.00 0.00 39 1013.5
20260508231016 71 68 0.9 5.2 0.00 0.00 0.00 38 1013.5
20260508230016 71 68 0.9 3.5 0.00 0.00 0.00 38 1013.5
20260508225016 71 293 0.9 2.6 0.00 0.00 0.00 38 1013.5
20260508224036 72 68 1.7 4.3 0.00 0.00 0.00 37 1013.5
20260508223016 72 270 0.9 3.5 0.00 0.00 0.00 37 1013.5
20260508222016 72 293 1.7 6.1 0.00 0.00 0.00 37 1013.6
20260508221016 72 293 0.9 2.6 0.00 0.00 0.00 37 1013.7
20260508220017 73 293 1.7 7.0 0.00 0.00 0.00 36 1013.8
20260508215016 74 293 1.7 7.8 0.00 0.00 0.00 35 1013.8
20260508214056 74 270 1.7 6.1 0.00 0.00 0.00 35 1013.8
20260508213016 74 270 0.9 4.3 0.00 0.00 0.00 36 1013.8
20260508212016 74 270 2.6 7.8 0.00 0.00 0.00 35 1013.7
20260508211016 74 270 1.7 6.1 0.00 0.00 0.00 36 1013.8
20260508210016 74 90 0.9 3.5 0.00 0.00 0.00 35 1013.9
20260508205016 74 270 1.7 4.3 0.00 0.00 0.00 35 1013.9
20260508204057 74 315 1.7 5.2 0.00 0.00 0.00 36 1013.9
20260508203016 74 270 1.7 6.1 0.00 0.01 0.00 36 1014.1
20260508202016 74 68 1.7 4.3 0.00 0.02 0.00 35 1014.2
20260508201016 73 293 1.7 6.1 0.00 0.02 0.00 35 1014.2
20260508200016 74 270 1.7 9.6 0.00 0.03 0.00 37 1014.4
20260508195036 73 270 1.7 6.1 0.00 0.06 0.00 36 1014.5
20260508194016 73 225 0.9 3.5 0.00 0.06 0.00 38 1014.6
20260508193137 73 270 1.7 4.3 0.00 0.06 0.00 38 1014.8
20260508192016 73 270 1.7 6.1 0.00 0.07 0.00 38 1015.0
20260508191016 72 68 0.9 4.3 0.00 0.07 0.00 38 1015.2
20260508190016 72 90 1.7 5.2 0.00 0.07 0.00 38 1015.2
20260508185016 73 270 0.9 4.3 0.00 0.07 0.00 38 1015.3
20260508184016 72 293 2.6 7.0 0.00 0.07 0.00 39 1015.4
20260508183016 72 90 0.9 2.6 0.00 0.07 0.00 40 1015.6
20260508182016 72 270 1.7 5.2 0.00 0.07 0.00 38 1015.7
20260508181036 72 270 0.9 4.3 0.00 0.07 0.00 39 1015.9
20260508180016 72 90 0.9 1.7 0.00 0.07 0.00 38 1016.0
20260508175016 72 68 1.7 5.2 0.00 0.07 0.00 38 1016.1
20260508174016 72 338 0.9 2.6 0.00 0.07 0.00 38 1016.2
20260508173016 71 293 0.9 3.5 0.00 0.07 0.00 41 1016.2
20260508172016 71 68 0.9 3.5 0.00 0.07 0.00 40 1016.5
20260508171016 71 0 0.9 7.0 0.00 0.07 0.00 40 1016.7
20260508170016 70 270 0.9 2.6 0.00 0.07 0.00 41 1016.9
20260508165016 69 90 1.7 4.3 0.00 0.07 0.00 40 1017.0